This is the latest recevied weather packets stored in our database for station/object KA1JKB. If no packets are shown the sender has not sent any weather packets the latest 10 day(s).
| Time | Temp. | Humidity | Pressure | Rain* | Wind** | Luminosity | Snow |
|---|---|---|---|---|---|---|---|
| 1777693023 | 2.78° C | 92% | 1013.7 hPa | 0 mm | - | 0 W/m² | - |
| 1777692720 | 2.78° C | 92% | 1013.6 hPa | 0 mm | - | 0 W/m² | - |
| 1777692416 | 2.22° C | 92% | 1013.5 hPa | 0 mm | - | 0 W/m² | - |
| 1777692112 | 1.67° C | 90% | 1013.6 hPa | 0 mm | - | 0 W/m² | - |
| 1777691810 | 1.67° C | 89% | 1013.7 hPa | 0 mm | - | 0 W/m² | - |
| 1777691508 | 1.67° C | 89% | 1013.6 hPa | 0 mm | - | 0 W/m² | - |
| 1777691207 | 1.67° C | 89% | 1013.6 hPa | 0 mm | - | 0 W/m² | - |
| 1777690904 | 1.67° C | 88% | 1013.6 hPa | 0 mm | - | 0 W/m² | - |
| 1777690610 | 1.67° C | 86% | 1013.6 hPa | 0 mm | - | 0 W/m² | - |
| 1777690299 | 1.67° C | 86% | 1013.6 hPa | 0 mm | - | 0 W/m² | - |
| 1777689997 | 2.22° C | 85% | 1013.8 hPa | 0 mm | - | 0 W/m² | - |
| 1777689694 | 2.22° C | 85% | 1013.5 hPa | 0 mm | - | 0 W/m² | - |
| 1777689393 | 2.22° C | 85% | 1013.5 hPa | 0 mm | - | 0 W/m² | - |
| 1777689089 | 2.22° C | 85% | 1013.5 hPa | 0 mm | - | 0 W/m² | - |
| 1777688786 | 2.22° C | 84% | 1013.8 hPa | 0 mm | - | 0 W/m² | - |
| 1777688484 | 2.78° C | 83% | 1013.7 hPa | 0 mm | - | 0 W/m² | - |
| 1777688181 | 2.78° C | 82% | 1013.6 hPa | 0 mm | - | 0 W/m² | - |
| 1777687878 | 2.78° C | 81% | 1013.5 hPa | 0 mm | - | 0 W/m² | - |
| 1777687575 | 3.33° C | 80% | 1013.6 hPa | 0 mm | - | 0 W/m² | - |
| 1777687272 | 3.89° C | 80% | 1013.5 hPa | 0 mm | - | 0 W/m² | - |
| 1777686970 | 3.89° C | 79% | 1013.4 hPa | 0 mm | - | 0 W/m² | - |
| 1777686666 | 3.89° C | 78% | 1013.2 hPa | 0 mm | - | 0 W/m² | - |
| 1777686363 | 4.44° C | 78% | 1013.2 hPa | 0 mm | - | 0 W/m² | - |
| 1777686060 | 4.44° C | 78% | 1013.2 hPa | 0 mm | - | 0 W/m² | - |
| 1777685755 | 4.44° C | 78% | 1013.1 hPa | 0 mm | - | 0 W/m² | - |
* Rain latest hour (hover to see other rain measurements)
** Current wind speed in m/s (hover to see current wind gust speed)